Flag for U.S.A. Weather past 2 weeks in Yonkers, New York, U.S.A.

Now
45 °F

Passing clouds.


Feels Like: 43 °F
Forecast: 38 / 46 °F
Wind: 5 mph from North

Location: Teterboro Airport

Current Time: Mar 31, 2015 at 11:57:37 AM

Latest Report: Mar 31, 2015 at 10:51 AM


Visibility: 10 mi

Pressure: 29.85 "Hg

Humidity: 40%

Dew point: 22 °F

Location of YonkersLocation

Historic Weather in Yonkers — Graph

°F

Yonkers temperature yesterday

Maximum temperature yesterday: 52 °F (at 2:51 PM)
Minimum temperature yesterday: 36 °F (at 1:51 AM)
Average temperature yesterday: 43 °F

Past Weeks' High & Low Weather Summary

 TemperatureHumidityPressure
High57 °F (Mar 26, 7:51 PM)93% (Mar 25, 10:51 PM)30.42 "Hg (Mar 25, 10:51 PM)
Low22 °F (Mar 23, 6:51 AM)18% (Mar 29, 5:51 PM)29.55 "Hg (Mar 17, 10:51 AM)
Average38 °F53%30.03 "Hg
* Reported Mar 16 10:51 AM — Mar 31 10:51 AM, Yonkers, Weather by CustomWeather, © 2015

Note: Actual official high and low records may vary slightly from our data, if they occured in-between our weather recording intervals... More about our weather records

Advertising

Yonkers weather history for previous 24 hours

 ConditionsComfort  
Time TempWeatherWind HumidityBarometerVisibility
10:51 AM
Tue, Mar 31
45 °FPassing clouds.5 mph40%29.85 "Hg10 mi
9:51 AM43 °FSunny.5 mph45%29.88 "Hg10 mi
8:51 AM40 °FSunny.8 mph51%29.88 "Hg10 mi
7:51 AM40 °FSunny.5 mph53%29.90 "Hg10 mi
6:51 AM37 °FClear.8 mph60%29.88 "Hg10 mi
5:51 AM39 °FPassing clouds.3 mph62%29.85 "Hg10 mi
4:51 AM39 °FPassing clouds.8 mph73%29.84 "Hg10 mi
3:51 AM38 °FClear.6 mph79%29.83 "Hg10 mi
2:51 AM37 °FClear.7 mph79%29.83 "Hg10 mi
1:51 AM40 °FPassing clouds.3 mph73%29.84 "Hg10 mi
12:51 AM43 °FPassing clouds.14 mph60%29.85 "Hg10 mi
11:51 PM
Mon, Mar 30
43 °FMostly cloudy.9 mph68%29.87 "Hg10 mi
10:51 PM43 °FLight rain. Passing clouds.12 mph65%29.87 "Hg10 mi
9:51 PM45 °FPassing clouds.13 mph56%29.86 "Hg10 mi
8:51 PM48 °FClear.No wind37%29.81 "Hg10 mi
7:51 PM48 °FPassing clouds.5 mph39%29.79 "Hg10 mi
6:51 PM51 °FPartly sunny.12 mph36%29.78 "Hg10 mi
5:51 PM51 °FPartly sunny.13 mph39%29.77 "Hg10 mi
4:51 PM51 °FOvercast.13 mph41%29.77 "Hg10 mi
3:51 PM51 °FOvercast.21 mph39%29.76 "Hg10 mi
2:51 PM52 °FPartly sunny.12 mph41%29.76 "Hg10 mi
1:51 PM51 °FScattered clouds.18 mph46%29.77 "Hg10 mi
12:51 PM47 °FPassing clouds.16 mph54%29.80 "Hg10 mi
11:51 AM42 °FMore clouds than sun.17 mph62%29.82 "Hg10 mi
Weather by CustomWeather, © 2015

See weather overviewHow to use our weather pages